Back to catalog

STARLINK-36094

AliveCommunicationsVLEO
NORAD 66851·PAYLOAD·🇺🇸 United States

Launched Dec 2, 2025 from Cape Canaveral Space Force Station

Loading…

Next Passes (next 24 hours)

TLE

FreshSource: CelesTrak SupGP

Epoch: Sep 14, 2026, 14:40 UTC

1 66851C 25281D   26257.61159722 -.00000884  00000+0 -32028-4 0  2576
2 66851  43.0022 356.4584 0001357 276.0854 301.7152 15.27569892    16

Track STARLINK-36094 in real time with AllMySat

Download on the App Store